sat.trackr.live / text

‹ back to catalog

IRIDE FM1

NORAD 66695 · 2025-276AF

PAYLOAD ACTIVE UNKNOWN

§ Identity

Operator
Country
IT
Launch date
2025-11-28
Launch site
AFWTR
Launch vehicle
Mass (kg)
RCS (m²)

External: N2YO · Heavens-Above · Gunter

§ Orbital elements

Epoch: 2026-05-25T04:19:42.483648Z

Period
94.70 min
Inclination
97.4201°
Eccentricity
0.0002179
Mean motion
15.20571302 rev/d
Perigee alt
502.6 km
Apogee alt
505.6 km
Semi-major
6,882.3 km
B*
2.3488e-4
RAAN
219.3509°
Arg perigee
78.2177°
Mean anomaly
281.9303°
Rev number
2,694

§ Raw data

IRIDE FM11 66695U 25276AF  26145.18035282  .00005075  00000+0  23488-3 0  99952 66695  97.4201 219.3509 0002179  78.2177 281.9303 15.20571302 26940

JSON: /api/v1/satellites/66695 · /tle

For live sub-satellite position, see the globe view (requires WebGL).

§ Visibility from observer

Set your observer location to see the next 7 days of passes ≥ 10°. The values pass through the URL so the page stays shareable.

No JS? Fill the form by hand. The geolocation button needs JavaScript.